User: anonymous   Login
Location: Castiglione Fibocchi
(43.5333°N, 11.7667°E)
Time: 04:33:09
(UTC+00:00)
Language:

ARIANE 5 R/B - Orbit

View from above orbital plane
View from above orbital plane
View from above satellite
View from above satellite

Ground track
Ground track

The orbit data is extracted from the following two-line orbital elements,

1 27387U 02009B   20304.16858960 +.00000007 +00000-0 +17549-4 0  9997
2 27387 098.6258 257.7883 0033528 081.9151 278.5836 14.36003224978203
Epoch (UTC): 30 October 2020 04:02:46
Eccentricity: 0.0033528
inclination: 98.6258°
perigee height: 748 km
apogee height: 796 km
right ascension of ascending node: 257.7883°
argument of perigee: 81.9151°
revolutions per day: 14.36003224
mean anomaly at epoch: 278.5836°
orbit number at epoch: 97820

The dashed part of the orbit path shows where the satellite is in the earth's shadow,  

DLR